Terug naar catalogus

FENGYUN 1C DEB

ActiefSSO
NORAD 41008·DEBRIS·🇨🇳 China

Gelanceerd May 10, 1999 vanaf Taiyuan Satellite Launch Center

Loading…

Volgende Passages (komende 24 uur)

TLE

VersSource: Space-Track

Epoch: Sep 12, 2026, 04:23 UTC

1 41008U 99025EXN 26255.18323421  .00001205  00000-0  70190-3 0  9990
2 41008  99.3540  41.4178 0501027 172.1161 188.8243 13.61516735601654

Volg FENGYUN 1C DEB in realtime met AllMySat

Download on the App Store